EW5383 Weather Reports


Display with metric or nautical units.
time (UTC)temp
F
wind
direction
speed
MPH
gust
MPH
rain 1hr
in
rain 24hr
in
rain mn
in
humidity
%
barometer
mb
20260505041605 0 0.0 0.0 0.00 0.00 0.00 1015.4
20260505034548 0 0.0 0.0 0.00 0.00 0.00 1015.5
20260505033044 72 167 0.0 2.0 0.00 0.00 0.00 38 1015.5
20260505031549 73 103 0.0 1.0 0.00 0.00 0.00 47 1015.5
20260505030036 73 75 0.0 2.0 0.00 0.00 0.00 52 1015.7
20260505024531 74 117 0.0 2.0 0.00 0.00 0.00 56 1015.5
20260505023026 74 105 0.0 2.0 0.00 0.00 0.00 58 1015.3
20260505021522 74 162 0.0 2.0 0.00 0.00 0.00 61 1015.2
20260505020020 75 106 0.0 1.0 0.00 0.00 0.00 62 1015.2
20260505014515 75 134 0.0 3.0 0.00 0.00 0.00 63 1015.0
20260505013008 76 64 0.0 2.0 0.00 0.00 0.00 64 1014.9
20260505011504 76 106 0.0 2.0 0.00 0.00 0.00 64 1014.7
20260505010108 77 192 0.0 1.0 0.00 0.00 0.00 65 1014.4
20260505004555 78 99 0.0 3.0 0.00 0.00 0.00 65 1014.2
20260505003050 78 60 0.0 2.0 0.00 0.00 0.00 64 1014.0
20260505001546 78 121 0.0 2.0 0.00 0.00 0.00 64 1013.9
20260505000049 79 162 0.0 3.0 0.00 0.00 0.00 63 1013.5
20260504234537 80 115 0.0 3.0 0.00 0.00 0.00 61 1013.2
20260504233034 80 155 0.0 3.0 0.00 0.00 0.00 60 1013.2
20260504231529 81 13 0.0 2.0 0.00 0.00 0.00 58 1013.1
20260504230025 82 139 0.0 2.0 0.00 0.00 0.00 55 1012.9
20260504224519 83 153 0.0 4.0 0.00 0.00 0.00 54 1012.8
20260504223015 83 156 0.0 2.0 0.00 0.00 0.00 52 1013.0
20260504221516 84 58 0.0 2.0 0.00 0.00 0.00 53 1013.1
20260504220029 83 123 0.0 3.0 0.00 0.00 0.00 54 1013.0
20260504214510 84 126 0.0 2.0 0.00 0.00 0.00 51 1013.0
20260504213003 85 172 0.0 2.0 0.00 0.00 0.00 51 1013.1
20260504211559 85 67 0.0 3.0 0.00 0.00 0.00 50 1013.1
20260504210059 85 101 0.0 2.0 0.00 0.00 0.00 49 1013.2
20260504204559 86 103 0.0 1.0 0.00 0.00 0.00 48 1013.3
20260504203047 86 117 0.0 0.0 0.00 0.00 0.00 47 1013.4
20260504201541 85 89 0.0 3.0 0.00 0.00 0.00 48 1013.5
20260504200036 86 79 0.0 2.0 0.00 0.00 0.00 46 1013.6
20260504194532 87 118 0.0 2.0 0.00 0.00 0.00 46 1013.8
20260504193026 86 212 0.0 3.0 0.00 0.00 0.00 49 1014.1
20260504191526 86 69 0.0 2.0 0.00 0.00 0.00 48 1014.1
20260504190017 85 202 0.0 2.0 0.00 0.00 0.00 50 1014.4
20260504184512 84 147 0.0 3.0 0.00 0.00 0.00 51 1014.7
20260504183007 83 68 0.0 2.0 0.00 0.00 0.00 50 1015.0
20260504181503 84 103 0.0 3.0 0.00 0.00 0.00 50 1015.2
20260504180138 83 20 0.0 3.0 0.00 0.00 0.00 51 1015.4
20260504174553 84 30 0.0 2.0 0.00 0.00 0.00 50 1015.5
20260504173049 84 175 0.0 2.0 0.00 0.00 0.00 51 1015.8
20260504171548 83 102 0.0 2.0 0.00 0.00 0.00 52 1015.9
20260504081600 0 0.0 0.0 0.00 0.00 0.00 1015.1